Location: Newark
(51.5700°N, 17.6700°E)
Time: 13:26:41
(UTC+00:00)

N. Korean satellite - Visible Passes

Search period start: 15 December 2019 00:00
Search period end: 25 December 2019 00:00
Orbit: 455 x 507 km, 97.2° (Epoch: 14 December)

Date Brightness Start Highest point End Pass type
(mag) Time Alt. Az. Time Alt. Az. Time Alt. Az.
15 Dec 7.8 04:26:34 10° NNE 04:29:57 41° E 04:33:14 10° S visible
15 Dec 7.9 06:00:35 10° NNW 06:03:05 18° WNW 06:05:33 10° WSW visible
15 Dec 9.4 16:40:56 10° SW 16:43:47 21° W 16:46:39 10° NW visible
16 Dec 9.1 04:01:32 10° NE 04:04:21 22° E 04:07:07 10° SSE visible
16 Dec 7.2 05:34:39 10° N 05:37:49 31° WNW 05:40:55 10° SW visible
16 Dec 8.2 16:14:45 10° SSW 16:18:12 38° W 16:21:39 10° NNW visible
17 Dec 9.9 03:37:11 10° ENE 03:38:39 12° E 03:40:07 10° ESE visible
17 Dec 6.4 05:08:59 10° N 05:12:28 61° WNW 05:15:52 10° SSW visible
17 Dec 6.8 15:49:02 10° S 15:52:42 74° W 15:56:21 10° NNW visible
18 Dec 6.8 04:43:31 10° NNE 04:47:01 67° ESE 04:50:27 10° S visible
18 Dec 6.7 15:23:40 10° SSE 15:27:16 57° ENE 15:30:51 10° N visible
18 Dec 9.9 16:58:59 10° WSW 17:01:00 14° W 17:03:01 10° NW visible
19 Dec 8.2 04:18:17 10° NNE 04:21:29 33° E 04:24:38 10° SSE visible
19 Dec 7.7 05:52:00 10° NNW 05:54:44 21° WNW 05:57:26 10° WSW visible
19 Dec 9.1 16:32:16 10° SSW 16:35:20 25° W 16:38:24 10° NW visible
20 Dec 9.4 03:53:23 10° NE 03:55:51 18° E 03:58:18 10° SE visible
20 Dec 6.9 05:26:10 10° N 05:29:26 38° WNW 05:32:39 10° SW visible
20 Dec 7.8 16:06:15 10° S 16:09:47 46° W 16:13:17 10° NNW visible
21 Dec 6.3 05:00:33 10° N 05:04:03 76° WNW 05:07:29 10° SSW visible
21 Dec 6.6 15:40:39 10° SSE 15:44:18 89° ENE 15:47:55 10° NNW visible
22 Dec 7.2 04:35:09 10° NNE 04:38:35 53° E 04:41:56 10° S visible
22 Dec 8.1 06:09:33 10° NNW 06:11:35 15° WNW 06:13:38 10° W visible
22 Dec 9.7 16:50:06 10° SW 16:52:31 17° W 16:54:56 10° NW visible
23 Dec 8.6 04:09:59 10° NE 04:13:00 27° E 04:15:58 10° SSE visible
23 Dec 7.5 05:43:26 10° N 05:46:21 25° WNW 05:49:14 10° WSW visible
23 Dec 8.7 16:23:40 10° SSW 16:26:53 30° W 16:30:06 10° NNW visible
24 Dec 9.6 03:45:17 10° NE 03:47:20 15° E 03:49:23 10° SE visible
24 Dec 6.6 05:17:40 10° N 05:21:01 47° WNW 05:24:19 10° SW visible
24 Dec 7.3 15:57:46 10° S 16:01:21 57° W 16:04:52 10° NNW visible
